Weather reports worldwide

Advertisment
London/Heathrow Intl, United Kingdom (3772): temperature & dewpoint: 15.02.2017 14:00:00 - 21.02.2017 14:00:00 (GMT)London/Heathrow Intl, United Kingdom (3772): wind speed & gusts: 15.02.2017 14:00:00 - 21.02.2017 14:00:00 (GMT)London/Heathrow Intl, United Kingdom (3772): wind direction: 15.02.2017 14:00:00 - 21.02.2017 14:00:00 (GMT)London/Heathrow Intl, United Kingdom (3772): reduced air pressure: 15.02.2017 14:00:00 - 21.02.2017 14:00:00 (GMT)London/Heathrow Intl, United Kingdom (3772): visibility: 15.02.2017 14:00:00 - 21.02.2017 14:00:00 (GMT)London/Heathrow Intl, United Kingdom (3772): sunshine duration: 15.02.2017 14:00:00 - 21.02.2017 14:00:00 (GMT)London/Heathrow Intl, United Kingdom (3772): precipitation: 15.02.2017 14:00:00 - 21.02.2017 14:00:00 (GMT)
Date & Time tt [°C] td [°C] ff [km/h] ff [kn] fx [km/h] fx [kn] dd ppp [hPa] vv [km] sd [min] rr [mm]
21.02.2017 14:00:00 13,5 10,4 21 11 - - W 1015,9 10 0 0,0
21.02.2017 13:00:00 13,1 10,3 24 13 - - W 1016,7 10 0 0,0
21.02.2017 12:00:00 12,4 10,2 24 13 - - W 1017,4 50 0 0,0
21.02.2017 11:00:00 12,1 10,1 21 11 - - W 1017,7 10 0 0,0
21.02.2017 10:00:00 11,5 10,1 16 9 - - W 1017,8 25 0 0,0
21.02.2017 09:00:00 10,9 9,9 18 10 - - W 1017,9 10 0 0,0
21.02.2017 08:00:00 10,3 9,7 16 9 - - W 1017,6 10 0 0,0
21.02.2017 07:00:00 10,0 9,7 16 9 - - WSW 1017,4 11 0 0,2
21.02.2017 06:00:00 9,8 9,6 16 9 - - W 1017,4 6 0 0,2
21.02.2017 05:00:00 9,9 9,7 13 7 - - WSW 1017,4 3,6 0 0,8
21.02.2017 04:00:00 10,1 9,7 16 9 - - W 1017,9 3,0 0 0,4
21.02.2017 03:00:00 10,7 9,1 18 10 - - W 1018,1 10 0 0,0
21.02.2017 02:00:00 10,4 8,9 22 12 - - W 1018,2 10 0 0,0
21.02.2017 01:00:00 10,4 8,7 24 13 - - W 1018,1 10 0 0,0
21.02.2017 00:00:00 10,6 8,9 18 10 - - W 1018,3 10 - 0,0
20.02.2017 23:00:00 11,5 9,3 28 15 - - W 1018,1 20 0 0,0
20.02.2017 22:00:00 11,6 9,5 24 13 - - W 1018,5 10 0 0,0
20.02.2017 21:00:00 12,1 10,0 21 11 - - W 1018,6 10 0 0,0
20.02.2017 20:00:00 12,4 10,0 26 14 - - W 1018,4 10 0 0,0
20.02.2017 19:00:00 13,1 10,4 24 13 - - W 1017,9 10 0 0,0
20.02.2017 18:00:00 13,3 10,4 24 13 - - W 1018,0 45 0 0,0
20.02.2017 17:00:00 13,6 10,3 26 14 - - W 1017,7 10 0 0,0
20.02.2017 16:00:00 14,5 10,6 26 14 - - WSW 1017,7 10 6 0,0
20.02.2017 15:00:00 16,0 10,7 28 15 - - W 1017,7 10 6 0,0
20.02.2017 14:00:00 17,3 11,1 26 14 48 26 WSW 1017,6 40 24 0,0
20.02.2017 13:00:00 16,5 11,0 22 12 - - W 1018,2 35 30 0,0
20.02.2017 12:00:00 14,4 10,5 18 10 - - WSW 1018,5 10 48 0,0
20.02.2017 11:00:00 14,3 11,0 16 9 - - SW 1018,8 10 24 0,0
20.02.2017 10:00:00 12,1 10,2 16 9 - - WSW 1019,3 18 0 0,0
20.02.2017 09:00:00 11,8 10,5 16 9 - - W 1019,6 8 0 0,0
20.02.2017 08:00:00 11,2 10,3 16 9 - - W 1019,1 7 0 0,0
20.02.2017 07:00:00 10,5 9,8 8 4 - - W 1019,0 6 0 0,0
20.02.2017 06:00:00 10,0 9,5 9 5 - - WSW 1019,0 5 0 0,0
20.02.2017 05:00:00 9,9 9,1 13 7 - - WSW 1019,2 7 0 0,0
20.02.2017 04:00:00 9,6 8,7 9 5 - - WSW 1019,5 10 0 0,0
20.02.2017 03:00:00 9,8 8,9 16 9 - - WSW 1019,8 9 0 0,0
20.02.2017 02:00:00 9,9 9,1 15 8 - - W 1020,4 10 0 0,0
20.02.2017 01:00:00 9,9 9,2 18 10 - - WSW 1021,1 7 0 0,0
20.02.2017 00:00:00 10,1 8,8 16 9 - - W 1021,7 10 - 0,0
19.02.2017 23:00:00 10,1 8,8 15 8 - - WSW 1021,5 25 0 0,0
19.02.2017 22:00:00 9,9 9,0 15 8 - - SW 1021,8 7 0 0,0
19.02.2017 21:00:00 10,1 8,5 15 8 - - SW 1021,9 10 0 0,0
19.02.2017 20:00:00 10,3 8,3 13 7 - - SW 1021,8 10 0 0,0
19.02.2017 19:00:00 10,7 7,7 15 8 - - WSW 1021,8 10 0 0,0
19.02.2017 18:00:00 10,8 7,7 15 8 - - WSW 1021,8 40 0 0,0
19.02.2017 17:00:00 11,0 7,5 16 9 - - WSW 1021,5 10 0 0,0
19.02.2017 16:00:00 11,3 7,2 16 9 - - W 1021,8 30 0 0,0
19.02.2017 15:00:00 11,6 6,5 15 8 - - W 1021,9 50 6 0,0
19.02.2017 14:00:00 12,6 7,3 18 10 - - WSW 1022,2 10 42 0,0
19.02.2017 13:00:00 11,1 5,6 16 9 - - W 1022,6 10 0 0,0
19.02.2017 12:00:00 10,5 6,4 18 10 - - W 1023,2 10 0 0,0
19.02.2017 11:00:00 9,8 6,6 21 11 - - W 1023,7 10 0 0,0
19.02.2017 10:00:00 8,9 6,3 21 11 - - W 1023,6 10 6 0,0
19.02.2017 09:00:00 7,9 6,3 16 9 - - WSW 1022,9 7 0 0,0
19.02.2017 08:00:00 6,9 6,0 9 5 - - SW 1022,9 4,9 0 0,0
19.02.2017 07:00:00 6,1 5,3 9 5 - - SSW 1022,7 3,6 0 0,0
19.02.2017 06:00:00 5,6 5,2 5 3 - - - 1022,3 3,5 0 0,0
19.02.2017 05:00:00 5,1 4,9 11 6 - - SW 1022,1 3,5 0 0,0
19.02.2017 04:00:00 4,7 4,5 9 5 - - SW 1022,7 2,9 0 0,0
19.02.2017 03:00:00 3,2 2,4 5 3 - - W 1023,0 3,4 0 0,0
19.02.2017 02:00:00 4,1 3,5 4 2 - - SSW 1022,8 3,6 0 0,0
19.02.2017 01:00:00 3,6 2,9 5 3 - - - 1023,8 3,8 0 0,0
19.02.2017 00:00:00 4,8 3,9 9 5 - - SSW 1024,1 7 - 0,0
18.02.2017 23:00:00 5,4 3,9 8 4 - - W 1024,6 11 0 0,0
18.02.2017 22:00:00 5,3 3,7 11 6 - - SW 1024,1 8 0 0,0
18.02.2017 21:00:00 6,7 4,5 15 8 - - SSW 1023,9 10 0 0,0
18.02.2017 20:00:00 7,6 4,5 15 8 - - S 1024,0 17 0 0,0
18.02.2017 19:00:00 8,9 4,0 15 8 - - SSW 1024,0 10 0 0,0
18.02.2017 18:00:00 10,2 4,3 13 7 - - SSW 1023,7 24 0 0,0
18.02.2017 17:00:00 11,5 4,5 16 9 - - SSW 1023,3 10 54 0,0
18.02.2017 16:00:00 12,7 6,7 5 3 - - SW 1023,6 12 60 0,0
18.02.2017 15:00:00 12,0 6,8 5 3 - - SSW 1023,9 10 48 0,0
18.02.2017 14:00:00 10,6 6,5 5 3 - - S 1024,6 7 18 0,0
18.02.2017 13:00:00 9,4 6,9 15 8 - - WSW 1025,3 7 0 0,0
18.02.2017 12:00:00 8,3 6,4 13 7 - - SSW 1025,9 4,7 0 0,0
18.02.2017 11:00:00 7,6 6,2 11 6 - - S 1026,0 3,8 0 0,0
18.02.2017 10:00:00 7,0 5,9 13 7 - - SSW 1026,1 3,1 0 0,0
18.02.2017 09:00:00 6,6 5,9 11 6 - - WSW 1026,1 3,0 0 0,0
18.02.2017 08:00:00 6,3 5,7 11 6 - - SW 1026,0 3,0 0 0,0
18.02.2017 07:00:00 6,1 5,6 11 6 - - SSW 1025,6 3,6 0 0,0
18.02.2017 06:00:00 5,9 5,7 11 6 - - SSW 1025,7 3,4 0 0,0
18.02.2017 05:00:00 5,7 5,3 11 6 - - SW 1026,1 4,2 0 0,0
18.02.2017 04:00:00 5,6 5,0 15 8 - - S 1026,2 7 0 0,0
18.02.2017 03:00:00 6,0 5,3 11 6 - - SSW 1026,6 6 0 0,0
18.02.2017 02:00:00 6,3 4,8 9 5 - - S 1026,9 10 0 0,0
18.02.2017 01:00:00 6,2 5,3 11 6 - - S 1027,1 11 0 0,0
18.02.2017 00:00:00 6,0 5,5 13 7 - - SSW 1027,3 4,6 - 0,0
17.02.2017 23:00:00 6,4 5,7 9 5 - - SSW 1027,4 7 0 0,0
17.02.2017 22:00:00 6,8 5,5 9 5 - - SSW 1027,5 10 0 0,0
17.02.2017 21:00:00 7,8 5,7 13 7 - - SSW 1027,4 10 0 0,0
17.02.2017 20:00:00 8,7 5,8 13 7 - - SSW 1027,3 10 0 0,0
17.02.2017 19:00:00 9,7 6,0 9 5 - - S 1027,4 10 0 0,0
17.02.2017 18:00:00 9,7 5,2 8 4 - - SW 1027,1 10 0 0,0
17.02.2017 17:00:00 10,6 5,2 8 4 - - SW 1026,8 10 0 0,0
17.02.2017 16:00:00 11,4 5,1 11 6 - - SW 1027,0 10 18 0,0
17.02.2017 15:00:00 13,1 6,0 9 5 - - SW 1027,3 10 48 0,0
17.02.2017 14:00:00 12,8 5,7 9 5 - - W 1027,7 10 54 0,0
17.02.2017 13:00:00 12,3 7,0 11 6 - - WSW 1028,2 10 48 0,0
17.02.2017 12:00:00 11,4 7,1 11 6 - - W 1028,6 10 18 0,0
17.02.2017 11:00:00 10,5 7,2 11 6 - - W 1028,7 10 30 0,0
17.02.2017 10:00:00 9,6 6,7 11 6 - - W 1028,7 10 24 0,0
17.02.2017 09:00:00 8,0 6,4 9 5 - - W 1028,4 14 12 0,0
17.02.2017 08:00:00 7,3 6,1 11 6 - - W 1028,2 9 0 0,0
17.02.2017 07:00:00 7,2 5,9 11 6 - - WSW 1027,9 10 0 0,0
17.02.2017 06:00:00 7,5 6,2 9 5 - - W 1027,9 13 0 0,0
17.02.2017 05:00:00 7,5 6,2 9 5 - - W 1028,1 10 0 0,0
17.02.2017 04:00:00 7,9 6,2 8 4 - - W 1027,9 10 0 0,0
17.02.2017 03:00:00 8,2 6,4 9 5 - - W 1028,0 10 0 0,0
17.02.2017 02:00:00 7,9 6,4 16 9 - - W 1028,2 10 0 0,0
17.02.2017 01:00:00 8,2 6,4 13 7 - - W 1028,5 10 0 0,0
17.02.2017 00:00:00 8,3 6,3 13 7 - - WSW 1028,5 10 - 0,0
16.02.2017 23:00:00 8,4 6,1 13 7 - - SW 1028,8 10 0 0,0
16.02.2017 22:00:00 8,7 5,9 13 7 - - SW 1028,9 10 0 0,2
16.02.2017 21:00:00 9,0 5,3 11 6 - - WSW 1029,1 10 0 0,0
16.02.2017 20:00:00 9,4 4,8 13 7 - - WSW 1028,8 10 0 0,0
16.02.2017 19:00:00 9,8 4,6 13 7 - - WSW 1028,8 10 0 0,0
16.02.2017 18:00:00 9,8 4,3 15 8 - - WSW 1028,7 10 0 0,0
16.02.2017 17:00:00 10,3 4,9 16 9 - - WSW 1028,6 10 0 0,0
16.02.2017 16:00:00 11,2 5,0 18 10 - - WSW 1028,4 10 12 0,0
16.02.2017 15:00:00 11,3 5,5 22 12 - - W 1028,5 45 48 0,0
16.02.2017 14:00:00 11,6 6,6 18 10 - - W 1028,8 10 54 0,0
16.02.2017 13:00:00 10,1 6,8 9 5 - - W 1029,7 10 12 0,0
16.02.2017 12:00:00 9,6 7,1 15 8 - - W 1030,4 10 6 0,0
16.02.2017 11:00:00 9,0 7,0 13 7 - - W 1030,8 10 18 0,0
16.02.2017 10:00:00 8,5 7,2 13 7 - - SW 1030,7 10 0 0,0
16.02.2017 09:00:00 7,4 6,6 15 8 - - WSW 1030,7 9 0 0,0
16.02.2017 08:00:00 6,9 6,3 13 7 - - SW 1030,5 8 0 0,0
16.02.2017 07:00:00 6,4 6,2 9 5 - - WSW 1030,1 7 0 0,0
16.02.2017 06:00:00 5,7 5,4 9 5 - - SW 1030,1 7 0 0,0
16.02.2017 05:00:00 6,1 5,7 11 6 - - SW 1030,1 10 0 0,0
16.02.2017 04:00:00 6,8 6,5 16 9 - - SSW 1030,2 12 0 0,0
16.02.2017 03:00:00 6,2 5,8 11 6 - - SSW 1030,2 8 0 0,0
16.02.2017 02:00:00 6,3 5,8 11 6 - - SSW 1030,0 10 0 0,0
16.02.2017 01:00:00 7,0 6,4 13 7 - - SW 1029,8 10 0 0,0
16.02.2017 00:00:00 7,1 6,3 13 7 - - SW 1030,0 10 - 0,0
15.02.2017 23:00:00 7,7 6,7 15 8 - - SW 1029,6 10 0 0,0
15.02.2017 22:00:00 7,7 6,7 21 11 - - SW 1029,6 10 0 0,0
15.02.2017 21:00:00 8,2 6,8 18 10 - - SSW 1029,2 10 0 0,0
15.02.2017 20:00:00 8,0 7,0 16 9 - - SSW 1028,9 10 0 0,0
15.02.2017 19:00:00 8,1 7,2 18 10 - - SSW 1028,8 10 0 0,2
15.02.2017 18:00:00 8,6 7,7 18 10 - - SSW 1028,4 10 0 0,0
15.02.2017 17:00:00 8,9 7,8 21 11 - - SW 1027,7 10 0 0,4
15.02.2017 16:00:00 9,4 8,1 18 10 - - SSW 1027,1 10 0 0,0
15.02.2017 15:00:00 9,8 8,8 18 10 - - SSW 1027,0 10 6 0,8
15.02.2017 14:00:00 9,8 8,9 24 13 - - S 1026,6 5 0 0,0

tt = temperature
td = dewpoint
ff = wind speed
fx = gusts
dd = wind direction
ppp = reduced air pressure
vv = visibility
sd = sunshine duration
rr = precipitation

Next stations